Printer-friendly version

IAU Minor Planet Center

Minor Planet Center

MPEC 2001-V55: 2001 TO103

The following Minor Planet Electronic Circular may be linked-to from your own Web pages, but must not otherwise be redistributed electronically.


Read MPEC 2001-V54 Read MPEC 2001-V56


M.P.E.C. 2001-V55                                Issued 2001 Nov. 14, 00:07 UT

     The Minor Planet Electronic Circulars contain information on unusual
         minor planets and routine data on comets.  They are published
   on behalf of Commission 20 of the International Astronomical Union by the
          Minor Planet Center, Smithsonian Astrophysical Observatory,
                          Cambridge, MA 02138, U.S.A.

             Prepared using the Tamkin Foundation Computer Network

                              MPC@CFA.HARVARD.EDU
          URL http://cfa-www.harvard.edu/iau/mpc.html  ISSN 1523-6714

                                  2001 TO103

                           Revision to MPEC 2001-U48

Observations:
     K01TA3O 1 1991 10 15.35000 02 52 23.14 +02 11 44.9                      261
     K01TA3O 1 1991 10 15.38819 02 52 18.17 +02 12 18.9                      261

Observer details:
261 Palomar-DSS.  Trail located and measured by DANEOPS (R. Stoss).
    1.2-m Schmidt.

Orbital elements:
2001 TO103
Epoch 2001 Oct. 18.0 TT = JDT 2452200.5                 MPC
M  53.49760              (2000.0)            P               Q
n   0.29955665     Peri.  261.28655     +0.49109389     +0.82012725
a   2.2121611      Node    42.58584     -0.52502262     +0.54763805
e   0.4345075      Incl.   25.71641     -0.69511009     +0.16578255
P   3.29           H   16.5           G   0.15           U   4
Residuals in seconds of arc
911015 261  0.4-  1.7+    011025 704  0.5-  0.6-    011111 704  0.1-  0.4+
911015 261  0.4+  1.7-    011025 704  0.4-  0.2+    011112 704  0.4+  0.2+
011014 704  0.7+  0.1+    011110 649  0.5-  0.3+    011112 704  0.4+  0.2+
011014 704  0.1+  0.3-    011110 649  0.6-  0.0     011112 704  0.8+  0.6+
011014 704  0.3+  0.8+    011110 649  0.6+  0.3+    011112 704  0.8+  0.6+
011021 704  0.1+  0.1+    011110 118  0.1-  0.7+    011112 704  1.4+  0.0
011021 704  0.1+  0.2+    011111 118  0.9-  0.5+    011112 704  1.4+  0.0
011021 704  0.5+  0.2-    011111 118  0.7-  0.2+    011112 704  0.2+  0.0
011021 704  0.3+  0.4-    011111 704  0.3-  0.0     011112 704  0.2+  0.0
011021 704  1.1+  0.3-    011111 704  1.2-  0.9-    011112 704  0.7-  1.0-
011025 704  2.0-  0.4-    011111 704  0.4+  0.3-    011112 704  0.7-  1.0-
011025 704  1.1-  0.3+    011111 704  0.1-  0.1-

Ephemeris:
2001 TO103               a,e,i = 2.21, 0.43, 26                  q = 1.2510
Date    TT    R. A. (2000) Decl.     Delta      r     Elong.  Phase     V
2001 11 07    03 45.19   +29 24.6    1.153    2.116   161.5     8.5    19.0
2001 11 17    03 25.66   +30 36.8    1.190    2.168   168.3     5.3    19.0
2001 11 27    03 07.50   +31 18.0    1.258    2.218   162.4     7.7    19.3
2001 12 07    02 52.78   +31 36.0    1.353    2.268   151.6    11.9    19.7
2001 12 17    02 42.53   +31 41.1    1.472    2.316   140.4    15.7    20.0
2001 12 27    02 36.93   +31 43.1    1.610    2.363   129.7    18.7    20.4
2002 01 06    02 35.56   +31 48.3    1.764    2.409   119.8    20.7    20.7
2002 01 16    02 37.82   +31 59.7    1.928    2.454   110.6    22.0    20.9
2002 01 26    02 43.11   +32 18.3    2.099    2.497   102.0    22.7    21.2
2002 02 05    02 50.86   +32 43.7    2.273    2.539    93.9    22.8    21.4
2002 02 15    03 00.64   +33 14.6    2.447    2.579    86.3    22.5    21.6

Timothy B. Spahr             (C) Copyright 2001 MPC           M.P.E.C. 2001-V55

Read MPEC 2001-V54 Read MPEC 2001-V56


Our Web policy. Index to the CBAT/MPC/ICQ pages.


Valid HTML 4.01!